sat.trackr.live / text

‹ back to catalog

GLOBALSTAR M078

NORAD 39076 · 2013-005E

PAYLOAD ACTIVE UNKNOWN

§ Identity

Operator
Country
GLOB
Launch date
2013-02-06
Launch site
TYMSC
Launch vehicle
Mass (kg)
RCS (m²)
4.34

Purposes: comms

External: N2YO · Heavens-Above · Gunter

§ Orbital elements

Epoch: 2026-05-24T22:06:52.075584Z

Period
114.08 min
Inclination
51.9896°
Eccentricity
0.0000792
Mean motion
12.62259992 rev/d
Perigee alt
1,413.0 km
Apogee alt
1,414.2 km
Semi-major
7,791.8 km
B*
-5.9204e-4
RAAN
354.4591°
Arg perigee
163.1098°
Mean anomaly
196.9795°
Rev number
61,307

§ Raw data

GLOBALSTAR M0781 39076U 13005E   26144.92143606 -.00000210  00000+0 -59204-3 0  99992 39076  51.9896 354.4591 0000792 163.1098 196.9795 12.62259992613072

JSON: /api/v1/satellites/39076 · /tle

For live sub-satellite position, see the globe view (requires WebGL).

§ Visibility from observer

Set your observer location to see the next 7 days of passes ≥ 10°. The values pass through the URL so the page stays shareable.

No JS? Fill the form by hand. The geolocation button needs JavaScript.